Location: Newark
(49.8348°N, 24.0280°E)
Time: 19:09:37
(UTC+00:00)

S-56A Canister/Altair - Pass Details

Date: 27 January 2020
Orbit: 633 x 2499 km, 38.9° (Epoch: 19 February)

Event Time Altitude Azimuth Distance (km) Brightness Sun altitude
Rises 21:43:24 0° 259° (W) 3,305 - -56.8°
Reaches altitude 10° 21:46:50 10° 239° (WSW) 2,176 - -57.0°
Maximum altitude 21:49:51 16° 200° (SSW) 1,672 - -57.2°
Drops below altitude 10° 21:52:39 10° 160° (SSE) 2,008 - -57.4°
Sets 21:55:39 0° 138° (SE) 2,928 - -57.5°
